This is the latest recevied weather packets stored in our database for station/object DB0GIS-11. If no packets are shown the sender has not sent any weather packets the latest 10 day(s).
| Time | Temp. | Humidity | Pressure | Rain* | Wind** | Luminosity | Snow |
|---|---|---|---|---|---|---|---|
| 1777429070 | 7.22° C | 49% | 1020.1 hPa | 0 mm | - | - | - |
| 1777428492 | 7.22° C | 49% | 1019.7 hPa | 0 mm | - | - | - |
| 1777427855 | 7.22° C | 49% | 1020 hPa | 0 mm | - | - | - |
| 1777427257 | 7.22° C | 49% | 1019.8 hPa | 0 mm | - | - | - |
| 1777426647 | 7.22° C | 49% | 1019.7 hPa | 0 mm | - | - | - |
| 1777426061 | 7.22° C | 49% | 1019.7 hPa | 0 mm | - | - | - |
| 1777425451 | 7.22° C | 48% | 1019.7 hPa | 0 mm | - | - | - |
| 1777424892 | 7.78° C | 48% | 1019.6 hPa | 0 mm | - | - | - |
| 1777423056 | 8.33° C | 46% | 1019.6 hPa | 0 mm | - | - | - |
| 1777420664 | 8.89° C | 44% | 1019.8 hPa | 0 mm | - | - | - |
| 1777419455 | 9.44° C | 44% | 1019.7 hPa | 0 mm | - | - | - |
| 1777416457 | 10° C | 43% | 1019.5 hPa | 0 mm | - | - | - |
| 1777415857 | 10° C | 43% | 1019.5 hPa | 0 mm | - | - | - |
| 1777415251 | 10° C | 43% | 1019.3 hPa | 0 mm | - | - | - |
| 1777414058 | 10.56° C | 43% | 1019 hPa | 0 mm | - | - | - |
| 1777413451 | 10.56° C | 43% | 1019 hPa | 0 mm | - | - | - |
| 1777411651 | 11.11° C | 43% | 1019 hPa | 0 mm | - | - | - |
| 1777409857 | 11.11° C | 44% | 1018.4 hPa | 0 mm | - | - | - |
| 1777408078 | 11.67° C | 44% | 1018.4 hPa | 0 mm | - | - | - |
| 1777407458 | 11.67° C | 45% | 1018.4 hPa | 0 mm | - | - | - |
| 1777406879 | 11.67° C | 45% | 1018.4 hPa | 0 mm | - | - | - |
| 1777405653 | 12.22° C | 46% | 1018.4 hPa | 0 mm | - | - | - |
| 1777403851 | 12.78° C | 45% | 1018.1 hPa | 0 mm | - | - | - |
| 1777402648 | 13.33° C | 44% | 1017.6 hPa | 0 mm | - | - | - |
| 1777399649 | 15° C | 42% | 1017.1 hPa | 0 mm | - | - | - |
* Rain latest hour (hover to see other rain measurements)
** Current wind speed in m/s (hover to see current wind gust speed)